Theta_e
309 309 309 308 308 306 304 304 305 302 303 305 308 307 305 303 303 301 300 304 298 295 298 299 298 297 299 300 296 300 297 298 296 292 290 292 290 293 292 294 291 289 288 288 289 285 283 300 299 291 297 300 300 300
308 308 308 308 307 305 304 304 304 302 303 305 307 307 305 303 302 301 298 303 303 296 297 303 302 304 303 303 300 300 298 297 296 293 293 292 290 294 292 287 297 289 293 288 290 291 301 302 300 302 301 298 298 299
309 309 308 308 307 305 304 304 304 302 302 304 307 307 305 303 302 301 299 301 299 296 298 300 301 306 307 306 308 297 298 302 299 302 296 294 290 296 290 292 292 296 297 291 288 297 297 298 301 301 301 300 300 300
308 308 308 308 307 305 304 304 304 302 302 303 305 307 304 302 302 302 299 301 299 297 292 299 306 303 308 308 306 306 303 303 302 299 296 293 291 298 293 294 292 289 293 290 291 296 296 297 299 300 299 301 300 300
307 307 307 308 307 305 304 304 303 302 302 303 304 306 303 301 302 302 301 301 302 295 292 295 302 306 307 307 305 305 301 297 295 294 292 292 297 298 296 294 287 292 289 285 286 293 294 295 300 300 298 299 297 296
307 307 307 307 307 305 304 304 302 302 302 303 305 306 302 301 301 298 294 302 303 301 293 289 304 303 304 305 304 302 301 296 294 290 292 297 300 293 289 289 291 295 295 295 292 297 298 299 301 300 300 297 297 296
306 307 307 307 307 305 304 304 303 303 302 303 304 304 300 300 300 294 294 298 303 303 293 290 295 302 304 303 303 302 301 298 296 294 293 296 294 295 290 288 293 295 292 294 298 299 296 300 297 299 299 297 297 296
306 306 306 306 307 305 304 304 303 303 302 303 303 300 299 299 298 295 299 302 303 298 296 288 293 298 304 298 297 304 299 296 296 296 297 293 296 297 291 293 294 291 291 294 297 299 300 301 299 299 299 296 294 293
306 306 306 306 306 305 304 304 303 303 302 303 300 299 298 296 294 298 304 303 303 296 290 290 292 293 302 298 299 297 298 295 299 291 293 293 294 288 290 290 289 290 289 291 297 299 301 299 297 297 297 295 293 291
306 306 306 306 306 305 304 303 303 302 302 300 298 295 291 298 305 304 299 294 293 294 294 290 298 294 297 296 295 296 297 296 290 289 293 293 290 293 293 291 290 292 294 296 295 296 300 298 296 296 297 295 294 292
306 306 306 307 306 305 304 303 303 302 299 296 292 292 298 301 301 298 292 290 290 288 292 294 297 293 300 292 293 298 296 298 290 290 291 291 289 291 293 290 292 293 295 296 298 302 302 301 297 297 298 296 294 293
306 306 306 306 306 305 304 303 301 299 296 296 296 299 299 295 293 289 288 293 291 289 295 294 296 298 297 301 296 298 293 296 288 298 293 287 290 293 293 291 291 292 294 296 300 302 303 302 300 298 298 296 295 294
305 306 306 306 305 304 303 302 300 298 298 298 295 292 292 290 285 285 284 288 290 295 297 295 293 297 297 299 297 295 290 289 297 293 288 289 292 293 292 291 291 292 294 297 299 303 304 302 302 300 298 299 296 294
305 305 305 305 304 304 303 301 299 298 298 291 289 284 285 286 288 291 293 295 296 296 296 295 295 295 298 294 296 287 293 293 287 286 285 291 293 293 293 292 291 290 293 295 297 300 301 302 302 300 299 300 298 294
305 305 305 304 304 303 302 300 299 299 295 291 291 285 287 292 295 297 296 295 296 298 296 295 297 298 295 291 292 291 287 282 286 284 288 292 292 292 292 292 291 291 291 292 296 298 300 301 301 302 301 300 300 297
305 304 302 303 303 302 301 300 296 296 294 291 292 289 292 291 293 294 294 294 297 298 299 297 294 291 290 291 286 286 285 283 286 289 291 291 293 292 292 292 292 293 292 291 294 297 298 300 301 301 302 300 299 299
303 300 303 302 301 300 298 294 293 290 290 290 290 294 293 294 294 295 297 297 300 295 292 296 288 285 294 289 282 290 285 287 290 291 291 292 292 292 293 293 293 293 293 292 293 295 297 299 302 301 300 301 300 299
299 302 302 300 298 296 294 295 292 290 287 290 290 292 294 296 295 296 298 298 296 296 296 292 296 290 288 284 289 291 293 295 297 296 294 292 293 295 294 292 293 293 294 294 293 293 294 295 298 297 300 303 301 298
300 301 299 299 297 295 291 292 294 288 290 292 294 295 296 297 299 299 299 299 301 300 297 295 290 291 291 295 293 294 294 297 296 296 296 295 296 296 295 293 293 293 294 293 294 294 291 291 294 296 298 299 301 300
300 299 299 298 299 295 291 292 297 292 289 292 295 293 295 296 297 298 298 298 297 296 292 290 292 294 294 294 296 296 297 299 297 295 294 296 296 296 296 295 293 296 296 294 294 291 293 292 292 293 295 296 299 300
297 297 298 298 295 295 295 292 291 293 294 292 294 294 294 296 295 294 295 298 294 294 292 296 295 296 297 298 298 299 296 297 295 296 295 292 294 295 296 296 297 296 295 294 290 290 290 291 292 291 293 295 298 301
295 297 293 294 293 293 293 296 294 295 294 294 294 295 293 292 292 294 296 293 293 295 297 297 296 296 296 296 296 296 295 297 298 295 288 294 292 293 293 294 294 293 293 294 293 292 291 292 292 293 293 292 295 300
297 296 294 294 290 290 290 297 291 293 290 291 294 291 291 292 295 296 292 296 297 299 298 298 298 298 297 296 295 294 294 296 296 295 294 294 294 294 294 294 294 292 291 293 294 294 294 289 292 292 294 292 291 294
298 293 290 290 291 288 293 291 294 292 293 290 289 288 290 292 295 292 290 294 297 297 297 297 297 296 295 295 293 293 294 298 296 293 293 293 292 293 294 294 294 293 292 293 293 293 294 294 291 292 292 291 290 289
289 288 289 285 292 289 288 288 289 289 287 289 288 289 291 294 289 289 289 294 295 295 297 297 297 296 294 294 293 293 295 297 294 292 292 293 292 293 293 293 293 292 292 292 291 291 292 293 294 292 291 290 289 288
285 288 287 288 289 288 289 286 287 288 289 288 289 292 293 291 287 286 292 296 296 296 297 296 296 295 295 294 293 293 293 296 296 292 292 292 291 290 289 289 289 290 292 292 291 290 290 291 292 292 292 291 288 289
283 285 291 296 293 292 290 292 292 290 288 287 290 289 290 285 285 291 297 299 297 298 299 299 298 296 295 294 294 294 295 294 293 292 293 293 292 291 290 288 288 288 291 291 291 290 289 290 290 291 291 293 291 290
289 290 286 289 290 293 288 289 289 288 289 293 292 287 286 287 287 292 295 299 299 300 299 299 299 297 295 295 294 294 293 293 293 293 293 293 293 292 291 291 291 284 290 291 290 290 289 290 290 290 290 291 291 291
288 291 291 287 289 290 290 289 290 293 296 294 290 289 288 289 291 294 297 298 299 298 296 295 295 296 294 294 294 295 294 294 292 288 287 289 289 289 290 290 290 291 291 291 284 285 288 289 289 290 290 290 290 291
288 292 288 288 287 286 291 294 293 296 297 296 293 291 290 290 294 298 297 296 295 295 295 295 294 293 292 292 291 291 293 293 292 291 288 287 287 289 289 289 289 289 290 290 289 289 285 289 288 290 289 289 288 287
291 291 289 289 288 291 293 295 295 295 295 295 295 292 288 289 292 294 295 296 296 296 294 293 293 294 293 292 292 290 289 291 290 288 288 290 289 288 288 288 289 289 289 288 288 287 286 287 286 286 285 285 284 284
289 288 288 286 286 290 292 291 291 290 290 289 290 290 290 289 285 291 293 295 294 293 289 292 293 292 294 294 293 291 287 290 289 288 286 287 287 286 287 287 288 288 287 287 286 285 284 283 283 283 282 281 281 281
289 289 289 288 286 287 289 289 287 286 288 287 287 288 288 287 283 288 293 295 295 294 293 293 293 293 293 292 290 289 287 287 282 280 280 279 278 280 284 285 286 286 286 285 285 283 282 280 280 279 279 278 278 278
Wind_Speed
20 21 21 20 20 18 15 14 13 9 10 14 12 7 6 7 9 7 3 2 6 7 14 11 7 9 6 5 6 8 6 4 3 4 5 4 6 4 7 8 3 2 3 3 6 4 7 16 11 12 16 21 23 25
19 20 21 21 21 20 17 15 15 11 13 15 13 9 7 7 8 4 6 3 3 6 9 12 13 13 12 9 7 5 3 3 2 3 2 4 4 5 7 4 3 1 2 3 4 6 18 14 15 19 20 24 23 24
19 19 20 20 22 21 19 18 16 13 13 14 13 11 8 6 7 6 7 4 4 7 11 10 7 10 9 9 6 5 5 7 4 6 4 3 5 4 4 5 5 5 10 4 9 5 17 20 19 21 24 25 26 25
17 18 18 19 22 22 20 19 17 15 14 14 15 11 7 6 6 7 7 4 4 7 6 4 6 5 6 8 9 8 5 1 4 4 3 4 4 3 5 7 6 3 10 10 14 13 21 14 23 26 27 24 26 28
16 16 17 18 21 22 21 19 18 16 14 14 16 11 8 5 7 5 8 6 7 5 7 8 12 12 6 8 8 8 5 3 4 2 2 4 4 4 4 3 2 2 3 3 6 19 19 23 25 27 25 26 25 24
15 15 16 17 20 22 20 20 18 15 15 15 17 11 8 3 3 5 3 5 8 5 4 5 4 8 8 7 8 7 6 4 2 2 3 4 4 1 2 2 5 11 11 12 9 19 24 22 23 24 23 24 23 22
15 15 16 17 20 22 21 20 18 16 14 13 12 13 10 5 3 4 3 3 6 4 3 6 5 9 5 6 6 6 8 4 4 3 4 3 2 3 1 2 16 17 15 19 19 19 22 20 23 21 18 22 24 22
14 14 14 16 19 21 22 20 18 16 14 10 6 12 9 4 6 7 9 10 6 3 3 4 6 8 7 6 4 6 6 4 4 3 1 2 3 4 1 14 18 15 18 17 17 21 23 18 23 22 18 19 22 20
13 13 14 15 18 21 22 21 18 14 11 9 12 9 3 4 4 2 12 11 2 2 3 3 6 3 7 6 4 5 4 5 5 4 1 2 1 4 8 12 15 14 12 18 22 24 25 20 22 21 22 20 21 21
13 13 13 14 17 22 22 20 17 14 16 15 5 3 3 4 8 14 4 4 4 4 4 5 9 7 3 4 4 2 5 3 3 1 4 3 4 6 10 10 10 14 16 17 20 20 24 22 21 22 20 18 19 19
13 12 12 13 19 22 23 21 19 19 13 2 3 2 1 3 4 4 4 5 4 4 5 5 8 7 3 4 4 4 3 2 0 3 2 3 3 9 12 12 13 14 15 17 18 20 19 19 19 19 19 19 21 21
13 12 12 14 21 23 23 22 25 6 3 5 2 1 1 2 4 4 5 5 7 5 6 6 4 2 3 2 2 2 3 2 1 7 2 3 5 11 12 14 15 15 17 18 18 20 21 20 19 19 18 15 20 19
11 12 12 17 23 25 24 25 16 19 12 3 2 3 3 4 5 6 7 5 5 5 6 6 7 4 5 3 1 2 3 1 3 1 3 3 7 10 11 12 15 16 17 17 18 20 23 19 20 20 19 13 13 19
11 11 14 22 25 25 22 25 26 17 3 3 5 6 6 6 6 7 9 1 6 2 5 4 4 4 2 2 1 3 3 1 2 3 4 5 9 10 11 12 13 15 17 17 17 18 20 19 18 18 19 14 11 15
10 13 21 24 25 23 26 27 20 2 3 3 5 5 8 7 9 7 5 3 3 2 3 3 2 2 3 1 2 2 2 2 5 3 3 6 10 10 11 12 12 12 14 15 16 15 17 18 17 18 17 17 15 11
13 18 7 24 24 27 27 18 3 1 1 3 5 4 3 5 7 4 5 4 3 2 2 3 1 3 3 2 4 0 2 1 3 2 4 5 9 10 10 11 12 10 11 13 15 15 15 17 16 16 17 19 18 19
15 2 26 26 30 28 21 5 3 5 4 4 5 5 6 10 6 5 3 4 1 4 5 2 3 4 2 2 2 0 2 3 0 2 3 5 8 10 10 11 11 12 11 11 15 15 15 16 14 15 18 18 17 18
3 18 32 34 22 11 2 3 3 5 6 7 3 6 10 8 4 4 3 3 4 2 2 0 2 4 3 4 3 3 4 3 2 0 3 5 7 7 8 11 11 12 12 11 11 12 15 16 15 12 16 17 14 16
17 20 34 27 10 5 4 4 3 4 5 4 5 8 8 1 4 5 3 3 2 2 1 2 0 2 4 1 5 5 4 2 2 4 3 3 6 7 7 9 9 10 10 10 12 9 9 13 12 12 11 12 12 11
32 32 28 17 2 3 5 4 4 3 3 4 8 7 7 6 5 4 3 3 4 3 3 3 3 4 5 5 4 3 3 0 3 3 4 3 5 6 7 6 6 7 8 10 10 9 10 9 9 11 12 13 11 11
21 15 12 3 1 1 1 4 4 4 3 5 8 7 5 5 5 4 4 3 4 1 3 1 6 6 7 5 5 4 5 4 5 3 3 5 6 6 6 6 7 7 7 8 8 10 12 10 10 9 11 12 13 11
7 11 3 1 1 2 2 4 3 4 3 3 7 7 6 7 5 5 4 5 2 3 1 3 7 7 7 7 6 5 5 3 3 5 5 2 5 6 7 7 8 8 8 9 8 8 8 9 10 11 8 11 13 11
12 3 3 2 3 4 3 5 5 6 5 8 8 6 5 5 4 5 3 2 3 2 4 5 8 6 9 8 7 6 4 1 4 4 4 5 5 5 6 7 7 9 9 9 9 9 9 7 11 11 11 7 10 12
4 3 4 5 5 4 6 7 5 4 3 6 8 6 7 4 5 4 4 5 4 6 6 9 8 8 7 7 5 5 4 2 4 5 5 5 5 5 6 6 6 8 9 8 9 9 10 10 8 11 11 11 11 10
4 4 4 4 6 6 7 7 5 5 5 7 9 5 4 4 5 5 5 6 7 7 8 8 8 8 6 6 6 6 1 3 4 5 5 5 5 4 5 5 6 9 9 9 10 11 11 11 11 11 11 11 13 13
3 6 8 8 6 6 6 7 8 8 6 6 5 5 4 5 6 5 3 7 6 8 8 8 7 7 7 6 6 5 4 3 2 5 5 5 6 6 6 7 7 8 9 9 10 12 13 13 13 15 12 12 9 12
4 5 5 3 3 3 4 3 5 5 7 5 5 6 5 5 5 3 3 4 6 7 7 7 7 6 6 7 7 5 5 5 6 5 4 4 6 6 6 7 8 9 9 10 11 11 13 13 13 13 13 11 11 11
1 3 7 6 4 2 4 5 7 7 5 4 7 7 7 3 3 3 2 3 6 7 7 6 7 8 8 7 6 5 5 6 6 4 4 5 4 5 6 5 6 5 7 7 9 10 12 11 12 12 14 13 12 11
3 3 5 6 5 5 6 5 4 2 1 5 7 3 4 4 0 2 4 5 6 7 8 9 9 9 8 6 6 5 5 5 2 3 2 3 4 6 6 6 6 6 7 8 3 4 10 11 9 10 13 11 12 12
5 5 3 6 5 3 2 2 4 5 6 7 6 10 10 6 4 2 6 7 7 8 7 9 8 8 8 7 7 7 6 6 6 5 5 5 5 5 6 6 7 7 7 8 9 10 8 10 9 11 12 11 11 12
6 4 4 4 3 2 5 7 7 7 5 5 8 9 8 5 4 6 2 4 6 7 9 8 7 6 6 6 6 7 7 7 7 7 5 4 5 6 6 6 6 7 7 8 9 10 12 11 11 12 14 15 17 15
5 5 4 4 3 2 4 3 3 4 4 6 7 8 7 5 5 2 5 3 6 6 5 6 7 6 7 8 7 7 8 7 6 6 7 6 6 6 6 5 5 6 7 9 9 10 12 13 11 13 13 15 16 17
3 4 2 4 3 4 3 3 3 3 3 3 3 3 5 4 4 2 3 5 0 6 5 7 8 8 9 9 9 7 8 9 11 9 8 8 8 9 7 7 7 6 6 7 8 9 11 12 11 13 13 14 15 15
Wind_Direction
245 240 234 225 215 206 211 230 237 227 252 267 263 238 256 282 294 292 319 295 296 287 291 285 276 273 273 258 304 34 242 205 317 301 349 333 334 329 328 303 158 225 286 253 256 267 270 7 360 341 320 307 312 302
247 244 238 229 214 204 208 218 230 221 255 263 261 237 229 253 274 288 276 146 278 266 299 321 283 278 276 299 307 286 13 332 49 301 337 320 306 294 316 301 46 320 11 284 294 277 313 331 323 307 328 306 312 305
253 248 240 230 214 205 205 212 218 215 241 272 270 234 218 231 253 248 299 320 270 264 267 220 218 207 222 234 239 284 37 360 69 343 337 302 270 272 286 301 330 360 35 304 340 294 319 333 321 314 317 321 305 305
253 251 246 230 213 204 202 207 211 212 226 256 279 231 208 221 253 259 262 271 259 278 277 115 144 200 185 195 209 232 294 10 324 292 271 256 262 297 309 319 12 358 308 328 287 295 334 316 318 319 310 313 324 320
251 248 245 233 213 203 198 201 202 211 223 242 265 219 185 214 267 269 265 252 251 287 322 321 319 239 197 200 212 216 229 285 289 277 247 258 283 306 343 318 89 282 312 297 290 306 296 300 308 313 325 334 321 309
250 246 243 235 212 199 195 193 203 214 226 239 262 192 165 203 256 263 249 198 216 226 283 285 18 179 182 202 215 217 190 171 214 221 249 269 47 65 277 289 185 348 338 309 286 300 290 308 303 338 342 328 315 312
248 245 241 235 211 197 189 193 203 215 221 245 274 153 143 197 227 236 337 332 297 174 258 279 258 184 194 227 192 143 142 187 212 224 229 239 297 209 239 306 347 346 326 309 300 307 310 310 331 348 344 326 319 311
247 244 240 231 213 195 187 191 199 205 215 227 206 137 145 193 255 259 246 199 252 234 246 271 270 195 183 249 231 145 168 168 218 262 237 218 232 216 220 350 338 334 319 304 319 311 302 313 336 348 343 331 329 328
245 242 236 229 214 191 185 186 192 194 193 166 137 140 158 211 217 248 120 147 191 275 277 244 270 121 182 253 295 248 191 206 144 220 132 286 241 47 349 339 327 323 310 300 307 307 322 346 347 344 343 335 334 332
242 240 233 225 206 186 177 176 178 170 147 138 170 173 217 195 135 125 159 159 201 202 224 253 273 270 15 327 227 263 199 202 190 38 169 212 91 59 11 356 315 312 314 316 316 320 330 337 352 348 352 346 340 337
241 236 227 218 187 173 167 168 163 137 121 194 171 218 42 315 203 220 206 207 175 220 208 232 271 321 127 314 318 351 328 278 286 141 227 171 107 15 358 348 335 330 323 323 320 316 318 344 354 349 358 355 345 349
235 226 215 203 178 167 162 160 149 131 142 129 100 45 172 216 219 235 220 186 203 229 173 221 177 224 103 312 248 225 254 221 224 167 207 104 39 360 1 345 342 337 333 327 333 330 340 354 358 360 2 1 352 350
231 215 200 181 164 158 159 156 144 128 124 142 187 183 199 172 228 228 203 193 220 174 153 192 181 200 156 231 288 312 266 321 290 28 65 61 12 3 355 346 345 343 335 337 343 344 342 355 359 4 4 7 1 355
221 199 180 162 157 157 158 145 145 144 141 179 175 179 225 177 232 219 256 89 75 163 155 198 157 215 92 97 200 257 315 256 249 164 68 34 2 354 347 350 347 339 340 343 346 345 340 351 354 8 2 12 13 8
201 178 161 157 155 153 146 149 159 155 164 196 209 204 209 245 271 231 70 103 125 89 163 178 173 202 128 101 238 311 254 266 29 50 32 353 339 345 344 344 342 344 345 340 338 346 343 348 354 358 4 8 14 28
165 146 148 151 149 141 142 132 107 129 222 233 233 234 248 247 244 179 199 126 156 178 186 269 193 193 103 150 229 189 320 19 77 21 2 333 335 344 338 342 344 342 349 337 338 344 347 346 353 352 6 3 19 9
139 151 149 141 133 129 119 99 163 184 212 227 216 225 252 249 211 178 187 108 146 207 224 108 213 103 118 186 123 227 22 67 88 355 345 339 343 329 341 339 343 344 350 341 344 344 347 346 355 356 353 7 12 15
92 138 135 130 123 103 90 190 169 182 213 227 200 206 241 271 142 125 95 135 213 225 225 161 48 182 215 153 150 157 144 175 95 105 44 345 323 342 353 345 344 346 343 350 346 349 353 350 356 356 345 352 5 16
142 138 133 132 127 122 141 169 237 218 214 162 204 236 235 147 49 87 108 126 1 349 185 208 203 237 99 44 113 129 133 195 20 72 55 333 288 7 13 358 354 344 347 2 346 357 358 350 348 347 348 340 346 16
134 135 131 132 156 130 141 154 200 232 184 189 225 207 198 182 136 140 148 176 184 196 189 211 27 59 116 111 121 127 98 352 317 66 49 325 22 352 45 5 352 348 4 12 359 7 350 360 1 353 344 325 342 358
115 125 102 66 92 307 186 158 184 211 187 195 205 187 133 157 169 166 167 180 214 288 134 94 99 93 102 124 100 98 93 13 64 53 7 19 355 12 13 15 357 13 14 22 8 0 360 356 353 348 345 339 335 322
107 100 96 247 119 193 213 209 219 168 208 201 172 183 165 179 178 178 136 202 197 105 73 127 117 136 139 128 112 57 82 129 72 125 221 218 12 13 10 11 10 15 12 15 8 11 358 358 357 342 354 350 335 339
99 105 125 132 151 177 222 167 188 202 187 177 180 177 166 184 136 142 208 84 103 158 191 129 136 137 105 112 122 110 88 243 90 49 36 13 29 23 9 16 16 19 7 11 4 3 1 10 2 354 354 6 357 346
163 127 159 170 184 176 169 191 209 186 191 172 181 186 167 143 141 229 196 155 145 185 160 145 156 138 148 166 141 109 101 79 108 82 29 1 13 24 10 16 29 31 7 354 7 1 359 3 9 4 2 0 2 354
146 157 164 193 216 173 172 167 168 181 187 176 184 140 136 146 193 211 214 151 168 180 154 180 171 165 159 132 116 114 60 24 65 80 47 25 358 359 18 13 43 50 1 360 3 360 358 359 4 13 6 6 2 356
159 170 193 194 175 175 169 159 182 194 163 180 178 122 139 190 200 207 170 144 168 178 172 180 172 164 146 143 126 103 87 53 88 92 61 32 31 9 10 8 5 30 359 359 358 355 359 356 359 3 8 4 9 357
155 200 187 246 183 164 104 109 143 189 191 175 154 157 186 157 215 85 137 125 160 162 176 179 155 148 138 114 111 113 89 68 50 72 76 59 57 33 13 12 12 10 331 0 356 353 358 352 357 359 356 2 14 1
283 175 159 155 101 140 143 177 179 191 195 150 154 190 178 171 78 20 79 174 146 158 158 130 130 120 116 123 125 136 126 120 131 158 160 133 103 57 19 12 32 266 310 8 359 357 0 349 356 356 356 357 8 7
160 112 112 150 146 199 213 200 191 122 123 168 171 96 95 70 167 181 152 135 149 142 144 135 113 112 119 118 100 73 37 3 13 111 108 67 33 33 15 6 3 358 1 347 86 31 4 335 349 356 357 2 8 352
137 157 146 171 179 176 122 30 89 87 67 80 101 108 101 95 120 175 126 146 148 149 140 126 142 158 148 139 119 102 88 69 47 36 28 34 16 11 2 360 359 356 358 352 354 2 5 346 16 8 6 9 14 357
133 188 171 159 123 75 114 106 99 80 73 97 113 111 120 120 74 29 45 169 148 134 138 149 153 141 143 142 144 156 122 104 94 71 24 359 16 19 2 353 356 359 356 358 3 13 4 5 14 10 7 8 9 6
169 198 162 129 119 68 39 57 67 90 89 95 102 112 122 107 87 60 345 331 139 148 105 144 134 114 93 73 73 70 49 80 71 52 25 13 20 5 347 355 9 10 2 5 13 20 14 14 15 14 10 10 9 8
136 132 111 118 127 139 142 115 105 108 109 104 81 72 79 74 93 101 323 319 287 128 143 105 102 93 91 86 93 95 79 82 87 84 75 53 30 0 338 5 354 5 26 23 20 24 21 17 19 17 15 15 14 10